Location: Aiyekoto
(8.4333°N, 4.3667°E)
Time: 13:17:12
(UTC+00:00)

ADEOS - Pass Details

Date: 05 October 2020
Orbit: 792 x 794 km, 98.9° (Epoch: 27 October)

Event Time Altitude Azimuth Distance (km) Brightness Sun altitude
Rises 02:35:16 0° 52° (NE) 3,281 7.3 -44.1°
Reaches altitude 10° 02:40:16 10° 94° (E) 2,354 6.6 -42.9°
Maximum altitude 02:40:50 10° 101° (E) 2,342 6.6 -42.7°
Drops below altitude 10° 02:41:25 10° 107° (ESE) 2,354 6.6 -42.6°
Sets 02:46:24 0° 149° (SSE) 3,285 7.1 -41.4°
